XM-3 (RHYTHM)

Last updated on Sat Apr 13 2024 01:02:37 GMT+0100 (British Summer Time)

1 28626U 05008A 24103.50384111 -.00000214 00000+0 00000+0 0 9996 2 28626 0.0152 225.6911 0000470 95.7152 336.0483 1.00273065 34648
UTC large
Height (km)
Speed (km/s)
/
Latitude / Longitude
Inclination (degrees)
Orbital Period (minutes)
Azimuth
Elevation
Range (km)
Doppler Factor

Next 0 passes for location: London (51.5072 / 0.1276)

Sorry there are no passes over London.